Regional Weather Roundup
Issued by NWS

Home | Current Version | Previous Version | Text Only | Print | Product List | Glossary On
Versions: 1 2 3 4 5 6 7 8 9 10 11 12 13 14 15 16 17 18 19 20 21 22 23 24 25 26 27 28 29 30 31 32 33 34 35 36 37 38 39 40 41 42 43 44 45 46 47 48 49 50
000
ASPQ40 PGUM 022314
RWRPQ
WEATHER ROUNDUP FOR THE MARIANAS AND MICRONESIA
NATIONAL WEATHER SERVICE TIYAN GU
900 AM CHST FRI JUL 03 2015

GUZ001>004-030000-
MARIANA ISLANDS-

CITY           SKY/WX    TMP DP  RH WIND       PRES   REMARKS
GUAM AIRPORT   RAIN      82  79  89 NE18G25   29.71R FOG     HX  93
ANDERSEN AFB   LGT RAIN  79  75  89 NE18G24   29.72R FOG
ROTA AIRPORT   NOT AVBL
TINIAN AP      NOT AVBL
SAIPAN AP      PTSUNNY   88  75  66 NE22G30   29.71S HX  97

$$

PMZ161-030000-
REPUBLIC OF PALAU-

CITY           SKY/WX    TMP DP  RH WIND       PRES   REMARKS
KOROR AP       NOT AVBL
KOROR WSO      CLOUDY    82  75  78 W6        29.86R

$$

PMZ171>174-030000-
FEDERATED STATES OF MICRONESIA-

CITY           SKY/WX    TMP DP  RH WIND       PRES   REMARKS
YAP AIRPORT    LGT RAIN  79  77  94 SW14G22   29.78F
CHUUK AP       CLOUDY    82  77  83 SW14      29.69R HX  91
POHNPEI AP     CLOUDY    81  77  89 W9        29.76S
POHNPEI WSO    CLOUDY    79  77  94 SW3       29.81R
KOSRAE AP      CLOUDY    88  77  70 N10       29.79R HX 100

$$

PMZ181-030000-
REPUBLIC OF THE MARSHALL ISLANDS-

CITY           SKY/WX    TMP DP  RH WIND       PRES   REMARKS
KWAJALEIN AP   SUNNY     84  73  70 NW8G16    29.80S HX  91
MAJURO AP      NOT AVBL
MAJURO WSO     LGT RAIN  79  75  89 W23G38    29.72R

$$



USA.gov is the U.S. government's official web portal to all federal, state and local government web resources and services.